FW3835 Weather Reports


Display with metric or nautical units.
time (UTC)temp
F
wind
direction
speed
MPH
gust
MPH
rain 1hr
in
rain 24hr
in
rain mn
in
humidity
%
barometer
mb
20260502193024 62 206 3.0 10.0 0.00 0.00 0.00 28 1009.7
20260502191510 62 192 2.0 12.0 0.00 0.00 0.00 29 1009.9
20260502190016 62 200 3.0 11.0 0.00 0.00 0.00 28 1010.0
20260502184532 61 227 2.0 7.0 0.00 0.00 0.00 28 1010.2
20260502183029 62 246 3.0 8.0 0.00 0.00 0.00 28 1010.3
20260502181533 61 248 1.0 7.0 0.00 0.00 0.00 27 1010.6
20260502163020 63 257 2.0 12.0 0.00 0.00 0.00 26 1011.5
20260502161521 61 225 3.0 11.0 0.00 0.00 0.00 26 1011.7
20260502151521 56 213 5.0 12.0 0.00 0.00 0.00 31 1012.1
20260502123032 42 172 3.0 9.0 0.00 0.00 0.00 44 1014.2
20260502121512 40 182 1.0 6.0 0.00 0.00 0.00 47 1014.5
20260502114524 37 229 1.0 5.0 0.00 0.00 0.00 48 1014.8
20260502113024 36 244 1.0 3.0 0.00 0.00 0.00 49 1015.0
20260502111528 36 244 1.0 3.0 0.00 0.00 0.00 48 1015.2
20260502110014 36 244 0.0 3.0 0.00 0.00 0.00 48 1015.3
20260502104520 36 244 0.0 3.0 0.00 0.00 0.00 49 1015.6
20260502103028 36 244 0.0 1.0 0.00 0.00 0.00 48 1015.8
20260502101535 36 240 0.0 2.0 0.00 0.00 0.00 48 1015.9
20260502091522 34 312 0.0 0.0 0.00 0.00 0.00 52 1016.4
20260502071527 33 312 0.0 0.0 0.00 0.00 0.00 56 1017.2
20260502070020 31 311 0.0 0.0 0.00 0.00 0.00 60 1017.3
20260502064507 30 312 0.0 0.0 0.00 0.00 0.00 65 1017.4
20260502063022 30 312 0.0 0.0 0.00 0.00 0.00 65 1017.5
20260502061513 30 311 0.0 0.0 0.00 0.00 0.00 65 1017.5
20260502060018 31 312 0.0 0.0 0.00 0.00 0.00 65 1017.5
20260502054523 32 312 0.0 0.0 0.00 0.00 0.00 66 1017.5
20260502053004 32 360 0.0 0.0 0.00 0.00 0.00 65 1017.6
20260502051511 32 311 0.0 0.0 0.00 0.00 0.00 64 1017.7
20260502050014 33 312 0.0 0.0 0.00 0.00 0.00 64 1017.7
20260502044519 33 360 0.0 0.0 0.00 0.00 0.00 60 1018.0
20260502043022 34 360 0.0 0.0 0.00 0.00 0.00 59 1018.0
20260502041507 34 312 0.0 0.0 0.00 0.00 0.00 60 1018.1
20260502040012 35 312 0.0 0.0 0.00 0.00 0.00 56 1018.0
20260502034518 35 311 0.0 0.0 0.00 0.00 0.00 54 1018.2
20260502033025 36 312 0.0 0.0 0.00 0.00 0.00 55 1018.3
20260502031523 37 313 0.0 0.0 0.00 0.00 0.00 55 1018.2
20260502030008 38 313 0.0 0.0 0.00 0.00 0.00 54 1018.2
20260502024513 39 313 0.0 0.0 0.00 0.00 0.00 51 1018.1
20260502023019 40 313 0.0 0.0 0.00 0.00 0.00 47 1018.2
20260502021521 41 313 0.0 0.0 0.00 0.00 0.00 39 1018.2
20260502020026 43 313 0.0 2.0 0.00 0.00 0.00 37 1017.9
20260502014528 45 313 0.0 1.0 0.00 0.00 0.00 33 1017.8
20260502013012 46 313 0.0 1.0 0.00 0.00 0.00 33 1017.8
20260502011518 47 313 0.0 2.0 0.00 0.00 0.00 32 1017.7
20260502010024 48 313 0.0 4.0 0.00 0.00 0.00 30 1017.8
20260502004524 49 311 0.0 5.0 0.00 0.00 0.00 27 1017.8
20260502003026 50 325 1.0 5.0 0.00 0.00 0.00 28 1017.9
20260502001516 50 301 1.0 4.0 0.00 0.00 0.00 26 1017.9
20260502000018 50 265 1.0 9.0 0.00 0.00 0.00 25 1017.9
20260501234522 50 98 1.0 8.0 0.00 0.00 0.00 25 1017.9
20260501233026 51 327 2.0 13.0 0.00 0.00 0.00 24 1017.9
20260501231541 53 343 2.0 8.0 0.00 0.00 0.00 23 1017.9
20260501230013 52 275 0.0 10.0 0.00 0.00 0.00 24 1017.8
20260501224519 53 317 2.0 10.0 0.00 0.00 0.00 24 1018.0
20260501223035 52 178 4.0 9.0 0.00 0.00 0.00 24 1018.0
20260501221528 53 344 4.0 10.0 0.00 0.00 0.00 23 1018.1
20260501220026 52 335 2.0 6.0 0.00 0.00 0.00 22 1018.1
20260501214519 52 302 3.0 12.0 0.00 0.00 0.00 22 1018.2
20260501213023 53 333 3.0 9.0 0.00 0.00 0.00 24 1018.3
20260501211526 52 269 3.0 10.0 0.00 0.00 0.00 21 1018.4
20260501210026 51 248 3.0 8.0 0.00 0.00 0.00 24 1018.6
20260501204529 52 294 1.0 11.0 0.00 0.00 0.00 24 1018.8
20260501203019 52 271 6.0 10.0 0.00 0.00 0.00 22 1019.0
20260501201525 52 263 2.0 9.0 0.00 0.00 0.00 22 1018.9
20260501200006 51 260 6.0 13.0 0.00 0.00 0.00 23 1018.9
20260501194510 51 215 3.0 11.0 0.00 0.00 0.00 24 1019.1